FENGYUN 1C DEB, 31948

Orbit data source: Space-Track

FENGYUN 1C DEB, 31948 is space debris in SSO originally from a launch on Mon, 10 May 1999 UTC launched from the Taiyaun Space Center, China (TSC). Fengyun 1C debris stems from the Chinese weather satellite Fengyun-1C, which was intentionally destroyed by a Chinese anti-satellite missile in 2007. This event dramatically increased the amount of space debris, with thousands of trackable fragments posing hazards to satellites and human spaceflight. The Fengyun 1C debris cloud has become a focal point in discussions about space sustainability and the need for international regulations to prevent the creation of new debris.

Loading next visibility...
Identifier
31948, 1999-025CMZ
Orbit
SSO
Country
Flag of CNCN / PRC
Related business
Manufacturer
Unknown
Mission
Spacecraft
Bus & Motor
Unknown
Mass
Unknown
Launch date (UTC)
1999-05-10 (27 years ago)
Launch vehicle
Unknown
Launch site
Taiyaun Space Center, China (TSC)
Object type
Payload
Rocket body
Debris
Shape & HBR
Unknown shape, 0.1 m
Radar Cross Section
Small (<0.1 m²)

Expand to show TLE details & history
Last TLE update: 2 weeks ago

TLE from 2 weeks ago
0 FENGYUN 1C DEB
1 31948U 99025CMZ 26152.17485763  .00003334  00000-0  13209-2 0  9997
2 31948  99.3808 230.4947 0022390 250.0123 139.3010 14.29491763974623
Epoch: 2026-06-01T04:11Z
TLE epoch observation values (Epoch: 2026-06-01T04:11:47.699Z)
Latitude
29.09647°
Longitude
-87.36709°
Altitude
809.214 km
Speed
7.445 km/s
True Right ascension
15h 00m 59s
True Declination
28° 57' 06"
Sunlit
Object was in full shadow at epoch
Visualization orbit readout
Latitude
Unknown
Longitude
Unknown
Altitude
Unknown
Speed
Unknown
Apparent Right ascension
Unknown
Apparent Declination
Unknown
Sunlit
N/A
Visualization observer readout
Local Sidereal Time
21:05:03
Azimuth
Unknown
Elevation
Unknown
Doppler factor
Unknown
Orbital elements
Apogee altitude
806.66 km
Perigee altitude
774.559 km
Semi-major axis
7,168.747 km
Eccentricity
0.00224
Inclination
99.3808°
RAAN
230.4947°
Arg. of periapsis
250.0123°
True anomaly
139.46795°
Mean anomaly
139.301°
Eccentric anomaly
139.38451°
Mean motion
3.57584 °/min
Orbital period
100.68 mins
BSTAR
0.0013209
Loading maneuver chart data...
Computing Atmospheric mass density...

Documentation

Showing up to 5 results
|